Погода в Чуе

Уругвай     33°41′53″S   53°26′55″W
темп.,
°C
ветер,
м/с
пор.,
м/с
влажн.,
%
обл.,
%
осадки,
мм/ч
давл.,
гПа
погр.,
м
9 мая, вс
вс900:00+16всв487891 0.1 1027328
03:00+16всв3877100 0.1 1026332
06:00+16всв377639 0.0 1025299
09:00+17ссв388141 0.1 1026474
12:00+21св5759100 0.1 10251447
15:00+21св4657100 0.3 10221301
18:00+17всв51084100 0.1 1022385
21:00+17св41089100 0.1 1022447
10 мая, пн
пн1000:00+16ссв31193100 0.5 1021450
03:00+16с2795100 1.5 1019284
06:00+16ссз2796100 0.3 1018326
09:00+16зсз2591100 0.3 1019287
12:00+18зюз4680100 0.1 1019729
15:00+18юз5775100 0.7 1017919
18:00+15ююз4974100 0.2 1018585
21:00+13юз3982100 0.3 1020424
11 мая, вт
вт1100:00+11зюз3973100 0.0 1020324
03:00+9зюз3108144 0.0 1020256
06:00+9зюз410741 0.0 1020301
09:00+11зюз410682 0.0 1022399
12:00+16юз575476 0.0 10211659
15:00+15юз365595 0.0 10201393
18:00+12юз357013 0.0 1020159
21:00+12зюз3972100 0.0 1021387
12 мая, ср
ср1200:00+11з3774100 0.0 1020251
03:00+11з4973100 0.0 1020367
06:00+12з49681 0.0 1020339
09:00+11зюз510686 0.0 1022336
12:00+17зюз46550 0.0 10211236
15:00+18зюз45480 0.0 10201387
18:00+13з35680 0.0 1020144
21:00+10зюз34790 0.0 102164
13 мая, чт
чт1300:00+8з35850 0.0 102287
03:00+7з34860 0.0 102176
06:00+6з36870 0.0 1022113
09:00+10з35670 0.0 1023169
12:00+17з34408 0.0 1022595
15:00+19зюз34395 0.0 1021873
18:00+14з236173 0.0 102135
21:00+10з237638 0.0 102234